Content
SEND FEEDBACK

Daily
Averages
Monthly
Summary
United States of America

ASATDAS, GUAM


Home > North America > United States > Guam
Elevation: 186 meters     Latitude: 13 35N     Longitude: 144 56E

WEATHER
 
SELECT A DAY
Number of Records: 214,811;   Date Range: 1/1/95 - 11/22/14
 
SHARE

PRINT THIS DATA

[ ← Previous Day ]
WEATHER ALMANAC - 12 OCTOBER, 2013
[ Next Day → ]
[ °F ]   °C
Weather ElementAverageHighLow
Temperature27.2 °C29 °C (1:19 pm)26 °C (8:17 am)
Dewpoint25.3 °C27 °C (1:19 pm)23.3 °C (8:54 pm)
Humidity90 %100 % (4:40 pm)79 % (11:54 am)
Barometer1006.4 hPa1008.8 hPa (10:07 pm)1003 hPa (1:54 am)
Wind Speed22 km/h35.2 km/h (1:38 pm)
Wind Gust59.2 km/h (1:38 pm)
Weather ElementAverage
Visibility13.2 km
Wind DirectionSSE (170.6 °)

Weather ElementTotal
Precipitation45.21 mm
Cooling Degree Days9.2 (Base 18.3)
Growing Degree Days17.5 (Base 10)
Averaged from 50 records on 12 October, 2013
WEATHER CONDITIONS BREAKOUT
WIND DIRECTION BREAKOUT
WEATHER BY HOUR - 12 OCTOBER, 2013
[ °F ]   °C
Local TimeTemperatureDewpointHumidityBarometerVisibilityWind DirectionWind SpeedGust SpeedPrecipitationEventsConditions
1:03 AM27 °C25 °C89 %1004.1 hPa16.1 kmSouth (170°)20.4 km/h35.2 km/hMostly Cloudy
1:54 AM27.8 °C25 °C85 %1003 hPa16.1 kmSouth (180°)24.1 km/h44.4 km/hMostly Cloudy
2:13 AM27 °C24 °C84 %1004.1 hPa16.1 kmSouth (180°)24.1 km/h37 km/hPartly Cloudy
2:54 AM27.8 °C25 °C85 %1003.4 hPa16.1 kmSouth (180°)22.2 km/h35.2 km/hMostly Cloudy
3:19 AM28 °C25 °C84 %1004.4 hPa16.1 kmSouth (180°)25.9 km/h42.6 km/hMostly Cloudy
3:54 AM27.8 °C24.4 °C82 %1004.1 hPa16.1 kmSouth (170°)27.8 km/h50.1 km/hMostly Cloudy
4:54 AM27.8 °C24.4 °C82 %1004.4 hPa16.1 kmSouth (180°)20.4 km/h33.3 km/hMostly Cloudy
5:54 AM27.8 °C24.4 °C82 %1005.1 hPa16.1 kmSouth (170°)22.2 km/h40.7 km/hScattered Clouds
6:54 AM27.8 °C24.4 °C82 %1005.4 hPa16.1 kmSouth (170°)20.4 km/h42.6 km/hScattered Clouds
7:54 AM28.3 °C25 °C82 %1006.4 hPa16.1 kmSouth (170°)25.9 km/h37 km/hMostly Cloudy
8:17 AM26 °C25 °C94 %1007.8 hPa3.2 kmSouth (170°)25.9 km/h51.8 km/h1.02 mmRainLight Rain
8:21 AM26 °C25 °C94 %1007.8 hPa6.4 kmSouth (170°)20.4 km/h37 km/h1.02 mmRainLight Rain
8:54 AM26.7 °C25.6 °C94 %1007.5 hPa14.5 kmSouth (170°)18.5 km/h1.02 mmPartly Cloudy
9:54 AM27.8 °C25.6 °C88 %1007.1 hPa16.1 kmSouth (170°)22.2 km/h35.2 km/h0 mmMostly Cloudy
10:27 AM27 °C26 °C94 %1007.8 hPa4 kmSouth (180°)20.4 km/h35.2 km/h0.76 mmRainLight Rain
10:34 AM27 °C26 °C94 %1007.8 hPa16.1 kmSouth (180°)22.2 km/h33.3 km/h0.76 mmOvercast
10:54 AM27.2 °C25 °C88 %1006.8 hPa14.5 kmSouth (170°)25.9 km/h50.1 km/h0.76 mmRainLight Rain
11:54 AM28.3 °C24.4 °C79 %1006.1 hPa16.1 kmSouth (170°)22.2 km/h38.9 km/h0 mmClear
12:54 PM27.8 °C26.1 °C90 %1005.8 hPa16.1 kmSouth (170°)22.2 km/h40.7 km/h0.25 mmScattered Clouds
1:19 PM29 °C27 °C89 %1006.1 hPa12.9 kmSSE (160°)27.8 km/h42.6 km/h0.25 mmOvercast
1:38 PM28 °C25 °C84 %1006.4 hPa8 kmSouth (170°)35.2 km/h59.2 km/h0.25 mmThunderstormMostly Cloudy
1:40 PM27 °C24 °C84 %1006.1 hPa2.9 kmSouth (180°)35.2 km/h59.2 km/h0.25 mmRain-ThunderstormHeavy Rain
1:51 PM26 °C25 °C94 %1006.1 hPa11.3 kmSouth (170°)22.2 km/h40.7 km/h1.52 mmRain-ThunderstormLight Rain
1:54 PM26.1 °C25 °C94 %1005.4 hPa11.3 kmSouth (170°)27.8 km/h40.7 km/h1.52 mmRain-ThunderstormLight Rain
2:01 PM27 °C26 °C94 %1005.8 hPa11.3 kmSouth (170°)22.2 km/h40.7 km/hScattered Clouds
2:31 PM28 °C26 °C89 %1005.4 hPa14.5 kmSSE (160°)18.5 km/h42.6 km/hThunderstormThunderstorm
2:54 PM26.7 °C26.1 °C96 %1004.7 hPa6.4 kmSSW (200°)14.8 km/h44.4 km/h5.84 mmRainRain
3:15 PM28 °C26 °C89 %1005.8 hPa14.5 kmSSE (160°)29.6 km/h42.6 km/h0.25 mmThunderstormMostly Cloudy
3:25 PM27 °C26 °C94 %1005.8 hPa16.1 kmSSE (160°)20.4 km/h38.9 km/h0.25 mmOvercast
3:54 PM27.8 °C26.1 °C90 %1004.7 hPa14.5 kmSSE (160°)22.2 km/h35.2 km/h0.25 mmMostly Cloudy
4:25 PM28 °C26 °C89 %1005.8 hPa16.1 kmSouth (170°)20.4 km/h38.9 km/hOvercast
4:32 PM28 °C26 °C89 %1006.4 hPa1.3 kmSouth (190°)27.8 km/h42.6 km/h0.51 mmRainHeavy Rain
4:36 PM27 °C26 °C94 %1006.4 hPa1.6 kmSSW (200°)20.4 km/h42.6 km/h4.06 mmRainHeavy Rain
4:40 PM26 °C26 °C100 %1006.4 hPa3.2 kmSouth (180°)16.7 km/h40.7 km/h5.33 mmRain-ThunderstormLight Thunderstorms and Rain
4:43 PM26 °C26 °C100 %1006.4 hPa8 kmSouth (170°)13 km/h38.9 km/h5.33 mmRain-ThunderstormLight Thunderstorms and Rain
4:54 PM26.1 °C25 °C94 %1005.8 hPa16.1 kmSouth (180°)13 km/h5.59 mmRain-ThunderstormLight Thunderstorms and Rain
5:35 PM26 °C26 °C100 %1006.4 hPa14.5 kmSouth (180°)18.5 km/h31.5 km/h2.79 mmRain-ThunderstormLight Thunderstorms and Rain
5:47 PM26 °C25 °C94 %1006.4 hPa16.1 kmSouth (170°)20.4 km/h2.79 mmMostly Cloudy
5:54 PM26.7 °C25 °C90 %1005.8 hPa16.1 kmSSE (160°)20.4 km/h35.2 km/h2.79 mmMostly Cloudy
6:48 PM27 °C26 °C94 %1007.5 hPa16.1 kmSSE (160°)27.8 km/h46.3 km/h0 mmMostly Cloudy
6:54 PM27.2 °C25.6 °C91 %1006.8 hPa16.1 kmSouth (170°)24.1 km/h38.9 km/h0 mmRainLight Rain
7:54 PM26.7 °C23.9 °C85 %1007.5 hPa16.1 kmSouth (180°)18.5 km/h0 mmRainLight Rain
8:54 PM26.7 °C23.3 °C81 %1007.8 hPa16.1 kmSouth (180°)14.8 km/h33.3 km/h0 mmScattered Clouds
9:54 PM26.1 °C25 °C94 %1008.5 hPa16.1 kmSSE (160°)16.7 km/hScattered Clouds
10:07 PM27 °C26 °C94 %1008.8 hPa16.1 kmSSE (150°)18.5 km/h35.2 km/hMostly Cloudy
10:34 PM27 °C26 °C94 %1008.8 hPa16.1 kmSSE (150°)18.5 km/h29.6 km/hScattered Clouds
10:54 PM27.2 °C25.6 °C91 %1007.8 hPa16.1 kmSSE (150°)20.4 km/h31.5 km/hScattered Clouds
10:55 PM27 °C26 °C94 %1008.8 hPa16.1 kmSSE (150°)16.7 km/h31.5 km/hMostly Cloudy
11:04 PM27 °C26 °C94 %1008.5 hPa16.1 kmSSE (160°)20.4 km/h33.3 km/hScattered Clouds
11:54 PM27.2 °C25 °C88 %1007.8 hPa16.1 kmSSE (160°)24.1 km/h35.2 km/hPartly Cloudy
Hourly data recorded from PGUM, located 0 kilometers away from Asatdas, Guam







STORIES FROM OUR PARTNERS